Showing default

GSTAR 3, 19483

Orbit data source: Space-Track

GSTAR 3, 19483 is a payload satellite owned by GTE (US) in GEO that was launched on Thu, 08 Sep 1988 UTC via an ARIANE 3 launch vehicle from the French Guiana (FRGUI). Payload-class satellites include a variety of spacecraft equipped with specific instruments for various scientific and technological missions. These include communications satellites like Starlink; space stations such as the ISS; scientific satellites like the Hubble; Earth observation satellites from companies like Planet Labs, Umbra, and HawkEye 360; GPS; miniature CubeSats for education and research; and military/defense satellites.

Loading next visibility...
Identifier
19483, 1988-081A
Orbit
GEO
Country
Flag of USUS
Related business
Manufacturer
GE/East Windsor
Mission
Commercial Communications
Bus & Motor
AS3000, TE-M-700-17
Mass
1,243 kg wet, ~370 kg dry
Launch date (UTC)
1988-09-08 (37 years ago)
Launch vehicle
ARIANE 3
Launch site
French Guiana (FRGUI)
Object type
Payload
Rocket body
Debris
Shape & HBR
Box + 2 Pan, 7.2 m
Radar Cross Section
6.702 m², Large (>1 m²)

Expand to show TLE details & history
Last TLE update: 21 hours ago

TLE from 21 hours ago
0 GSTAR 3
1 19483U 88081A   26033.55730500 -.00000102  00000-0  00000-0 0  9993
2 19483  11.3174 319.3786 0005183 227.9365  40.8153  1.00271834133242
Epoch: 2026-02-02T13:22Z
TLE epoch observation values (Epoch: 2026-02-02T13:22:31.152Z)
Latitude
-11.32239°
Longitude
-105.20829°
Altitude
35,771.966 km
Speed
3.076 km/s
True Right ascension
15h 12m 41s
True Declination
-11° 18' 40"
Sunlit
Object was in daylight at epoch
Visualization orbit readout
Latitude
Unknown
Longitude
Unknown
Altitude
Unknown
Speed
Unknown
Apparent Right ascension
Unknown
Apparent Declination
Unknown
Sunlit
N/A
Visualization observer readout
Local Sidereal Time
12:22:59
Azimuth
Unknown
Elevation
Unknown
Doppler factor
Unknown
Orbital elements
Apogee altitude
35,809.446 km
Perigee altitude
35,765.737 km
Semi-major axis
42,165.728 km
Eccentricity
0.00052
Inclination
11.3174°
RAAN
319.3786°
Arg. of periapsis
227.9365°
True anomaly
40.85414°
Mean anomaly
40.8153°
Eccentric anomaly
40.83472°
Mean motion
0.25067 °/min
Orbital period
1,436.15 mins
BSTAR
0
Loading maneuver chart data...
Computing Atmospheric mass density...
Loading historical data...
Loading historical data...
Loading historical data...
Loading historical data...
Loading historical data...
Loading historical data...
Loading historical data...

Documentation

Showing up to 5 results
|